Regional Weather Roundup
Issued by NWS

Home | Current Version | Previous Version | Text Only | Print | Product List | Glossary Off
Versions: 1 2 3 4 5 6 7 8 9 10 11 12 13 14 15 16 17 18 19 20 21 22 23 24 25 26 27 28 29 30 31 32 33 34 35 36 37 38 39 40 41 42 43 44 45 46 47 48 49 50

000
ASUS45 KABQ 010010
RWRNM
NEW MEXICO REGIONAL WEATHER ROUNDUP
NATIONAL WEATHER SERVICE ALBUQUERQUE NM
600 PM MDT MON AUG 31 2015

NOTE: "FAIR" MEANS FEW OR NO CLOUDS BELOW 12,000 FEET AGL WITH NO
       SIGNIFICANT WEATHER OR OBSTRUCTIONS TO VISION.

      THIS PRODUCT IS RELEASED AS TWO VERSIONS.  ONE VERSION NEAR
      THE TOP OF THE HOUR CONTAINING PRELIMINARY DATA FROM ALBUQUERQUE
      AND OTHER STATIONS.  A FINAL VERSION WITH ADDITIONAL DATA IS
      ISSUED ABOUT 10 MINUTES AFTER THE HOUR.

NMZ501-503-504-510>518-010100-
NORTHWEST PLATEAU/NORTHCENTRAL MOUNTAINS

CITY           SKY/WX    TMP DP  RH WIND       PRES   REMARKS
FARMINGTON     SUNNY     83  38  20 W12       30.10F
6HR MIN TEMP:  78; 6HR MAX TEMP:  87;

LOS ALAMOS     MOSUNNY   78  43  29 CALM      30.22S
SANTA FE       PTSUNNY   85  39  19 NW12G18   30.13S
6HR MIN TEMP:  82; 6HR MAX TEMP:  89;

TAOS           MOSUNNY   79  39  24 SW10      30.21S THUNDER
ANGEL FIRE     CLOUDY    72  46  39 NW14      30.31S

$$
NMZ402-403-502-505>509-010100-
WESTCENTRAL MOUNTAINS/SOUTHWEST MOUNTAINS

CITY           SKY/WX    TMP DP  RH WIND       PRES   REMARKS
GALLUP         CLOUDY    72  50  45 S17       30.21R
6HR MIN TEMP:  71; 6HR MAX TEMP:  84; 6HR PCP: TRACE;

GRANTS         CLOUDY    73  48  41 N13G21    30.24R
SILVER CITY      N/A     77  52  41 NW16G25   30.14R

$$
NMZ407-409-411-412-010100-
SOUTHERN DESERTS

CITY           SKY/WX    TMP DP  RH WIND       PRES   REMARKS
DEMING         SUNNY     91  42  18 NW3       30.01S
6HR MIN TEMP:  88; 6HR MAX TEMP:  95;

LAS CRUCES     MOSUNNY   94  38  14 SW6       30.02S
HOLLOMAN AFB   MOSUNNY   94  45  18 VRB6      29.96F
ALAMOGORDO     MOSUNNY   93  41  16 NW5       29.98F
T OR C         PTSUNNY   83  52  34 NW16G23   30.06S
6HR MIN TEMP:  81; 6HR MAX TEMP:  88;


$$
NMZ519>523-010100-
CENTRAL VALLEYS/CENTRAL HIGHLANDS

CITY           SKY/WX    TMP DP  RH WIND       PRES   REMARKS
ALBUQUERQUE    PTSUNNY   81  43  26 SW22G30   30.09R
6HR MIN TEMP:  80; 6HR MAX TEMP:  91;

DOUBLE EAGLE   PTSUNNY   72  55  56 SW15      30.14S THUNDER
MORIARTY ARPT  MOCLDY    77  42  28 N15G21    30.15R
6HR MIN TEMP:  77; 6HR MAX TEMP:  89;

CLINES CORNERS MOSUNNY   80  43  26 NW14      30.19S
6HR MIN TEMP:  78; 6HR MAX TEMP:  84;

BELEN          FAIR      85  44  23 SW20      30.08S
6HR MIN TEMP:  84; 6HR MAX TEMP:  91;

SOCORRO        FAIR      85  42  22 NW7       30.06F
6HR MIN TEMP:  82; 6HR MAX TEMP:  90;


$$
NMZ524>526-539-540-010100-
SOUTHCENTRAL MOUNTAINS

CITY           SKY/WX    TMP DP  RH WIND       PRES   REMARKS
RUIDOSO        PTSUNNY   79  43  27 MISG      30.22F

$$
NMZ527>531-010100-
NORTHEAST HIGHLANDS/NORTHEAST PLAINS

CITY           SKY/WX    TMP DP  RH WIND       PRES   REMARKS
LAS VEGAS      PTSUNNY   75  45  34 NW14      30.18S
6HR MIN TEMP:  63; 6HR MAX TEMP:  88; 6HR PCP:  0.52;

RATON          CLOUDY    75  46  35 NW9       30.15R
6HR MIN TEMP:  75; 6HR MAX TEMP:  89; 6HR PCP: TRACE;

CLAYTON        PTSUNNY   84  54  35 NW6       30.02R
6HR MIN TEMP:  84; 6HR MAX TEMP:  92;


$$
NMZ532>537-010100-
EASTCENTRAL PLAINS

CITY           SKY/WX    TMP DP  RH WIND       PRES   REMARKS
TUCUMCARI      SUNNY     95  48  20 SW10      29.93F
6HR MIN TEMP:  89; 6HR MAX TEMP:  98;

CANNON AFB     SUNNY     90  50  25 S16G25    29.99F
6HR MIN TEMP:  87; 6HR MAX TEMP:  94;

CLOVIS AIRPORT SUNNY     90  50  25 S20       30.02S

$$
NMZ028-029-538-010100-
SOUTHEAST PLAINS

CITY           SKY/WX    TMP DP  RH WIND       PRES   REMARKS
ROSWELL        MOSUNNY   94  47  20 SE14      29.95F
ARTESIA        SUNNY     93  50  22 SE14      29.96S
CARLSBAD       NOT AVBL
HOBBS          SUNNY     88  48  25 SE10G16   30.01F


$$


USA.gov is the U.S. government's official web portal to all federal, state and local government web resources and services.